sat.trackr.live / text

‹ back to catalog

IPM 2 & BREEZE-M R/B

NORAD 47242 · 2020-097A

PAYLOAD ACTIVE UNKNOWN

§ Identity

Operator
Country
CIS
Launch date
2020-12-14
Launch site
PLMSC
Launch vehicle
Mass (kg)
RCS (m²)

External: N2YO · Heavens-Above · Gunter

§ Orbital elements

Epoch: 2026-09-19T22:12:44.990208Z

Period
1,511.06 min
Inclination
5.6105°
Eccentricity
0.0083402
Mean motion
0.95297512 rev/d
Perigee alt
36,877.6 km
Apogee alt
37,605.2 km
Semi-major
43,619.5 km
B*
0.0000e+0
RAAN
75.5212°
Arg perigee
282.2671°
Mean anomaly
77.0146°
Rev number
2,017

§ Raw data

IPM 2 & BREEZE-M R/B1 47242U 20097A   26262.92552072 -.00000081  00000+0  00000+0 0  99952 47242   5.6105  75.5212 0083402 282.2671  77.0146  0.95297512 20170

JSON: /api/v1/satellites/47242 · /tle

For live sub-satellite position, see the globe view (requires WebGL).

§ Visibility from observer

Set your observer location to see the next 7 days of passes ≥ 10°. The values pass through the URL so the page stays shareable.

No JS? Fill the form by hand. The geolocation button needs JavaScript.